Location: Forst
(46.9333°N, 15.4333°E)
Time: 20:17:03
(UTC+00:00)

COSMO-SKYMED 1 - Pass Details

Date: 01 December 2020
Orbit: 621 x 623 km, 97.9° (Epoch: 27 January)

Event Time Altitude Azimuth Distance (km) Brightness Sun altitude
Exits shadow 15:44:52 - 50° (NE) 2,306 4.9 -5.8°
Reaches altitude 10° 15:46:27 10° 67° (ENE) 2,002 4.5 -6.1°
Maximum altitude 15:47:58 12° 88° (E) 1,892 4.5 -6.3°
Drops below altitude 10° 15:49:30 10° 108° (ESE) 1,996 4.7 -6.6°
Sets 15:53:11 0° 142° (SE) 2,894 5.9 -7.1°
